Regional Weather Roundup
Issued by NWS

Home | Current Version | Previous Version | Graphics & Text | Print | Product List | Glossary On
Versions: 1 2 3 4 5 6 7 8 9 10 11 12 13 14 15 16 17 18 19 20 21 22 23 24 25 26 27 28 29 30 31 32 33 34 35 36 37 38 39 40 41 42 43 44 45 46 47 48 49 50
000
ASUS43 KOAX 300002
RWRNE

WEATHER ROUNDUP FOR NEBRASKA
NATIONAL WEATHER SERVICE OMAHA NE
700 PM CDT MON AUG 29 2016

NOTES: SATELLITE DATA IS BEING USED TO AUGMENT CLOUD COVER ABOVE
       12000 FEET.
       "FAIR" INDICATES FEW OR NO CLOUDS BELOW 12,000 FEET WITH NO
       SIGNIFICANT WEATHER AND/OR OBSTRUCTIONS TO VISIBILITY.

  * THESE STATIONS DO NOT REPORT WEATHER SUCH AS RAIN...SNOW OR FOG.

NEZ001>004-019>022-054>056-300100-
NEBRASKA PANHANDLE

CITY           SKY/WX    TMP DP  RH WIND       PRES   REMARKS
SCOTTSBLUFF    CLOUDY    81  58  45 SE14      30.23R
6HR MIN TEMP:  81; 6HR MAX TEMP:  90;

ALLIANCE       CLOUDY    73  64  73 E10       30.25R
6HR MIN TEMP:  67; 6HR MAX TEMP:  87; 6HR PCP:  0.03;

CHADRON        MOSUNNY   85  54  34 E12       30.19S
6HR MIN TEMP:  78; 6HR MAX TEMP:  88;

KIMBALL        CLOUDY    72  56  56 SE12      30.30R
SIDNEY         CLOUDY    69  58  67 SE8       30.28R
6HR MIN TEMP:  66; 6HR MAX TEMP:  84; 6HR PCP: TRACE;

$$

NEZ057>060-069>072-079>082-300100-
SOUTHWEST NEBRASKA

CITY           SKY/WX    TMP DP  RH WIND       PRES   REMARKS
NORTH PLATTE   PTSUNNY   77  65  66 S6        30.20S
6HR MIN TEMP:  75; 6HR MAX TEMP:  82;

IMPERIAL       CLOUDY    76  60  57 S8        30.22S
6HR MIN TEMP:  76; 6HR MAX TEMP:  80;

LEXINGTON      CLOUDY    78  66  67 S3        30.20R
MCCOOK         CLOUDY    77  64  64 E6        30.20S
6HR MIN TEMP:  76; 6HR MAX TEMP:  78;

$$

NEZ005>010-023>029-035>040-094-300100-
NORTH CENTRAL NEBRASKA

CITY           SKY/WX    TMP DP  RH WIND       PRES   REMARKS
VALENTINE      CLOUDY    83  60  45 S6        30.17R
6HR MIN TEMP:  83; 6HR MAX TEMP:  90;

AINSWORTH      CLOUDY    79  65  61 S6        30.18S
BROKEN BOW     MOSUNNY   77  67  71 S5        30.20R
6HR MIN TEMP:  75; 6HR MAX TEMP:  83;

O`NEILL        CLOUDY    83  61  47 CALM      30.17R
ORD            CLOUDY    80  64  58 S5        30.17R
6HR MIN TEMP:  76; 6HR MAX TEMP:  83;

THEDFORD       PTSUNNY   80  63  56 SE8       30.21R
$$

NEZ041-046>049-061>064-073>077-083>087-300100-
SOUTH CENTRAL NEBRASKA

CITY           SKY/WX    TMP DP  RH WIND       PRES   REMARKS
GRAND ISLAND   CLOUDY    75  61  61 S9        30.19R
6HR MIN TEMP:  75; 6HR MAX TEMP:  85;

AURORA         RAIN      71  68  91 SW6       30.19R
HASTINGS       LGT RAIN  72  66  81 W5        30.21R
6HR MIN TEMP:  71; 6HR MAX TEMP:  83; 6HR PCP:  0.02;

HEBRON         LGT RAIN  71  66  83 CALM      30.18R
HOLDREGE       CLOUDY    77  67  71 SE6       30.20R
KEARNEY *      PTSUNNY   79  66  65 S7        30.19R
YORK           CLOUDY    73  70  88 CALM      30.19R
$$

NEZ011>018-030>034-042>045-300100-
NORTHEAST NEBRASKA

CITY           SKY/WX    TMP DP  RH WIND       PRES   REMARKS
NORFOLK        PTSUNNY   75  66  73 S16       30.16R
6HR MIN TEMP:  75; 6HR MAX TEMP:  85;

ALBION         PTSUNNY   78  66  68 SE12G22   30.18R
BLAIR          CLOUDY    74  69  85 E10       30.15R
FREMONT        TSTM      73  67  80 S12G24    30.17R VSB 3/4
TEKAMAH        CLOUDY    77  69  76 E9        30.15R
6HR MIN TEMP:  77; 6HR MAX TEMP:  86;

WAYNE          CLOUDY    82  73  74 S3        30.16R
$$

NEZ050>053-065>068-078-088>093-300100-
SOUTHEAST NEBRASKA

CITY           SKY/WX    TMP DP  RH WIND       PRES   REMARKS
LINCOLN        CLOUDY    74  69  85 CALM      30.16S
6HR MIN TEMP:  73; 6HR MAX TEMP:  89; 6HR PCP:  0.46;

OMAHA EPPLEY   TSTM      73  66  78 E18G26    30.15S
6HR MIN TEMP:  72; 6HR MAX TEMP:  88; 6HR PCP:  0.33;

BEATRICE       CLOUDY    71  69  93 NW10      30.15F
FALLS CITY     MOSUNNY   85  72  65 CALM      30.10S HX  91
6HR MIN TEMP:  84; 6HR MAX TEMP:  91;

NEBRASKA CITY  CLOUDY    77  69  76 E3        30.13F
PLATTSMOUTH    CLOUDY    73  67  81 E10       30.14F
$$

NEZ044-045-051>053-067-300100-
OMAHA AREA

CITY           SKY/WX    TMP DP  RH WIND       PRES   REMARKS
OMAHA EPPLEY   TSTM      73  66  78 E18G26    30.15S
6HR MIN TEMP:  72; 6HR MAX TEMP:  88; 6HR PCP:  0.33;

BLAIR          CLOUDY    74  69  85 E10       30.15R
FREMONT        TSTM      73  67  80 S12G24    30.17R VSB 3/4
MILLARD        CLOUDY    76  68  75 E5        30.14R
OFFUTT AFB     CLOUDY    74  67  81 NE14      30.12F
PLATTSMOUTH    CLOUDY    73  67  81 E10       30.14F
WAHOO          LGT RAIN  72  70  92 CALM      30.16S
$$




USA.gov is the U.S. government's official web portal to all federal, state and local government web resources and services.